| time (UTC) | temp C | wind direction | speed KPH | gust KPH | rain 1hr cm | rain 24hr cm | rain mn cm | humidity % | barometer mb |
| 20260507030107 | 11 | 265 | 9.7 | 20.9 | 0.03 | 0.15 | 0.15 | 92 | 1001.9 |
| 20260507024556 | 12 | 292 | 11.3 | 33.8 | 0.03 | 0.15 | 0.15 | 91 | 1002.3 |
| 20260507023049 | 12 | 274 | 6.4 | 19.3 | 0.00 | 0.13 | 0.13 | 92 | 1002.3 |
| 20260507021604 | 13 | 262 | 8.0 | 24.1 | 0.00 | 0.13 | 0.13 | 92 | 1001.7 |
| 20260507020051 | 13 | 289 | 12.9 | 24.1 | 0.00 | 0.13 | 0.13 | 92 | 1001.5 |
| 20260507014553 | 14 | 279 | 11.3 | 22.5 | 0.00 | 0.13 | 0.13 | 93 | 1001.3 |
| 20260507013039 | 14 | 248 | 9.7 | 20.9 | 0.00 | 0.13 | 0.13 | 93 | 1000.8 |
| 20260507011539 | 15 | 176 | 11.3 | 24.1 | 0.00 | 0.13 | 0.13 | 92 | 1000.8 |
| 20260507010038 | 15 | 202 | 9.7 | 16.1 | 0.00 | 0.13 | 0.13 | 92 | 1000.8 |
| 20260507004541 | 15 | 184 | 9.7 | 20.9 | 0.00 | 0.13 | 0.13 | 93 | 1000.7 |
| 20260507003036 | 15 | 159 | 11.3 | 19.3 | 0.00 | 0.13 | 0.13 | 92 | 1000.5 |
| 20260507001536 | 14 | 201 | 11.3 | 22.5 | 0.00 | 0.13 | 0.13 | 93 | 1000.5 |
| 20260507000036 | 14 | 119 | 9.7 | 19.3 | 0.00 | 0.13 | 0.13 | 93 | 1000.4 |
| 20260506234534 | 15 | 188 | 9.7 | 19.3 | 0.00 | 0.13 | 0.13 | 93 | 1000.1 |
| 20260506233034 | 15 | 185 | 8.0 | 16.1 | 0.00 | 0.13 | 0.13 | 93 | 1000.1 |
| 20260506231534 | 15 | 181 | 8.0 | 20.9 | 0.00 | 0.13 | 0.13 | 93 | 1000.2 |
| 20260506230033 | 15 | 187 | 8.0 | 22.5 | 0.00 | 0.13 | 0.13 | 92 | 1000.2 |
| 20260506224536 | 14 | 160 | 9.7 | 22.5 | 0.00 | 0.13 | 0.13 | 92 | 1000.5 |
| 20260506223031 | 15 | 161 | 12.9 | 19.3 | 0.00 | 0.13 | 0.13 | 92 | 1000.5 |
| 20260506221532 | 15 | 131 | 9.7 | 22.5 | 0.00 | 0.13 | 0.13 | 92 | 1000.5 |
| 20260506220036 | 15 | 195 | 12.9 | 24.1 | 0.00 | 0.13 | 0.13 | 92 | 1000.6 |
| 20260506214529 | 15 | 163 | 11.3 | 24.1 | 0.00 | 0.13 | 0.13 | 92 | 1000.6 |
| 20260506213028 | 15 | 142 | 9.7 | 20.9 | 0.00 | 0.13 | 0.13 | 92 | 1000.5 |
| 20260506211527 | 15 | 142 | 16.1 | 38.6 | 0.00 | 0.13 | 0.13 | 92 | 1000.5 |
| 20260506210028 | 15 | 179 | 9.7 | 30.6 | 0.03 | 0.13 | 0.13 | 92 | 1000.6 |
| 20260506204528 | 15 | 173 | 14.5 | 35.4 | 0.05 | 0.13 | 0.13 | 92 | 1000.7 |
| 20260506203025 | 15 | 161 | 16.1 | 29.0 | 0.05 | 0.13 | 0.13 | 91 | 1000.7 |
| 20260506201539 | 15 | 157 | 14.5 | 29.0 | 0.05 | 0.13 | 0.13 | 91 | 1001.1 |
| 20260506200027 | 16 | 169 | 11.3 | 24.1 | 0.03 | 0.10 | 0.10 | 91 | 1001.1 |
| 20260506194523 | 16 | 180 | 17.7 | 30.6 | 0.00 | 0.08 | 0.08 | 90 | 1001.4 |
| 20260506193025 | 16 | 155 | 9.7 | 30.6 | 0.03 | 0.08 | 0.08 | 90 | 1001.6 |
| 20260506191522 | 16 | 181 | 12.9 | 29.0 | 0.03 | 0.08 | 0.08 | 89 | 1001.3 |
| 20260506190021 | 16 | 145 | 12.9 | 25.7 | 0.05 | 0.08 | 0.08 | 88 | 1001.0 |
| 20260506184520 | 16 | 168 | 9.7 | 19.3 | 0.08 | 0.08 | 0.08 | 88 | 1001.5 |
| 20260506183019 | 16 | 137 | 8.0 | 17.7 | 0.05 | 0.05 | 0.05 | 87 | 1002.0 |
| 20260506181518 | 16 | 171 | 9.7 | 19.3 | 0.05 | 0.05 | 0.05 | 85 | 1002.1 |
| 20260506180018 | 16 | 170 | 8.0 | 16.1 | 0.03 | 0.03 | 0.03 | 83 | 1002.3 |
| 20260506174516 | 17 | 217 | 9.7 | 16.1 | 0.00 | 0.00 | 0.00 | 80 | 1002.6 |
| 20260506173016 | 17 | 237 | 11.3 | 25.7 | 0.00 | 0.00 | 0.00 | 74 | 1002.6 |
| 20260506171516 | 18 | 211 | 14.5 | 38.6 | 0.00 | 0.00 | 0.00 | 69 | 1002.5 |
| 20260506170016 | 20 | 211 | 12.9 | 30.6 | 0.00 | 0.00 | 0.00 | 65 | 1002.4 |
| 20260506164515 | 20 | 244 | 14.5 | 45.1 | 0.00 | 0.00 | 0.00 | 64 | 1002.4 |
| 20260506163029 | 20 | 202 | 11.3 | 45.1 | 0.00 | 0.00 | 0.00 | 64 | 1002.5 |
| 20260506161513 | 20 | 190 | 20.9 | 45.1 | 0.00 | 0.00 | 0.00 | 63 | 1002.6 |
| 20260506160015 | 20 | 161 | 12.9 | 33.8 | 0.00 | 0.00 | 0.00 | 63 | 1002.9 |
| 20260506154509 | 19 | 129 | 8.0 | 24.1 | 0.00 | 0.00 | 0.00 | 66 | 1003.2 |
| 20260506153008 | 19 | 192 | 9.7 | 33.8 | 0.00 | 0.00 | 0.00 | 65 | 1003.4 |
| 20260506151507 | 19 | 215 | 11.3 | 33.8 | 0.00 | 0.00 | 0.00 | 66 | 1003.6 |
| 20260506150008 | 19 | 199 | 11.3 | 24.1 | 0.00 | 0.00 | 0.00 | 68 | 1003.8 |
| 20260506144509 | 19 | 153 | 9.7 | 35.4 | 0.00 | 0.00 | 0.00 | 68 | 1003.3 |
| 20260506143014 | 19 | 133 | 14.5 | 35.4 | 0.00 | 0.00 | 0.00 | 68 | 1003.5 |
| 20260506141503 | 18 | 150 | 8.0 | 17.7 | 0.00 | 0.00 | 0.00 | 72 | 1003.4 |
| 20260506140104 | 18 | 129 | 6.4 | 16.1 | 0.00 | 0.00 | 0.00 | 74 | 1003.4 |
| 20260506134557 | 18 | 116 | 6.4 | 22.5 | 0.00 | 0.00 | 0.00 | 74 | 1003.2 |
| 20260506133100 | 17 | 140 | 8.0 | 12.9 | 0.00 | 0.00 | 0.00 | 76 | 1003.7 |
| 20260506131552 | 17 | 201 | 4.8 | 17.7 | 0.00 | 0.00 | 0.00 | 77 | 1003.7 |
| 20260506130054 | 16 | 161 | 12.9 | 24.1 | 0.00 | 0.00 | 0.00 | 78 | 1003.8 |
| 20260506124549 | 16 | 165 | 9.7 | 19.3 | 0.00 | 0.00 | 0.00 | 79 | 1003.9 |
| 20260506123049 | 16 | 132 | 4.8 | 16.1 | 0.00 | 0.00 | 0.00 | 80 | 1003.9 |
| 20260506121549 | 15 | 122 | 6.4 | 12.9 | 0.00 | 0.00 | 0.00 | 81 | 1003.7 |
| 20260506120106 | 15 | 152 | 6.4 | 16.1 | 0.00 | 0.00 | 0.00 | 81 | 1004.2 |
| 20260506114556 | 15 | 159 | 8.0 | 19.3 | 0.00 | 0.00 | 0.00 | 82 | 1004.1 |
| 20260506113044 | 15 | 153 | 9.7 | 19.3 | 0.00 | 0.00 | 0.00 | 81 | 1004.2 |
| 20260506111549 | 14 | 137 | 9.7 | 17.7 | 0.00 | 0.00 | 0.00 | 81 | 1004.3 |
| 20260506110043 | 14 | 136 | 9.7 | 17.7 | 0.00 | 0.00 | 0.00 | 82 | 1004.2 |
| 20260506104543 | 14 | 136 | 11.3 | 20.9 | 0.00 | 0.00 | 0.00 | 81 | 1004.2 |
| 20260506103036 | 14 | 130 | 9.7 | 17.7 | 0.00 | 0.00 | 0.00 | 81 | 1004.3 |
| 20260506101536 | 14 | 130 | 12.9 | 20.9 | 0.00 | 0.00 | 0.00 | 80 | 1004.0 |
| 20260506100030 | 14 | 136 | 11.3 | 19.3 | 0.00 | 0.00 | 0.00 | 79 | 1004.2 |
| 20260506094529 | 14 | 160 | 9.7 | 22.5 | 0.00 | 0.00 | 0.00 | 78 | 1004.2 |
| 20260506093039 | 15 | 99 | 9.7 | 20.9 | 0.00 | 0.00 | 0.00 | 77 | 1004.1 |
| 20260506091523 | 15 | 103 | 9.7 | 16.1 | 0.00 | 0.00 | 0.00 | 75 | 1004.0 |
| 20260506090020 | 15 | 141 | 8.0 | 14.5 | 0.00 | 0.00 | 0.00 | 74 | 1004.1 |
| 20260506084519 | 15 | 130 | 9.7 | 17.7 | 0.00 | 0.00 | 0.00 | 73 | 1004.2 |
| 20260506083017 | 15 | 154 | 9.7 | 17.7 | 0.00 | 0.00 | 0.00 | 73 | 1004.2 |
| 20260506081515 | 15 | 140 | 9.7 | 16.1 | 0.00 | 0.00 | 0.00 | 71 | 1004.2 |
| 20260506073011 | 16 | 150 | 6.4 | 12.9 | 0.00 | 0.00 | 0.00 | 69 | 1004.2 |
| 20260506071508 | 16 | 143 | 4.8 | 12.9 | 0.00 | 0.00 | 0.00 | 68 | 1004.1 |
| 20260506061505 | 16 | 208 | 12.9 | 22.5 | 0.00 | 0.00 | 0.00 | 66 | 1003.9 |
| 20260506044554 | 17 | 150 | 8.0 | 16.1 | 0.00 | 0.00 | 0.00 | 62 | 1004.5 |
| 20260506043052 | 17 | 205 | 8.0 | 16.1 | 0.00 | 0.00 | 0.00 | 62 | 1004.4 |
| 20260506041602 | 17 | 147 | 8.0 | 14.5 | 0.00 | 0.00 | 0.00 | 61 | 1004.3 |
| 20260506040047 | 18 | 114 | 6.4 | 17.7 | 0.00 | 0.00 | 0.00 | 60 | 1004.3 |
| 20260506034543 | 18 | 142 | 6.4 | 14.5 | 0.00 | 0.00 | 0.00 | 59 | 1004.3 |
| 20260506033043 | 18 | 137 | 9.7 | 16.1 | 0.00 | 0.00 | 0.00 | 58 | 1004.3 |
| 20260506031543 | 18 | 148 | 11.3 | 24.1 | 0.00 | 0.00 | 0.00 | 58 | 1004.4 |